This is the latest recevied weather packets stored in our database for station/object WA9NNN-10. If no packets are shown the sender has not sent any weather packets the latest 10 day(s).
| Time | Temp. | Humidity | Pressure | Rain* | Wind** | Luminosity | Snow |
|---|---|---|---|---|---|---|---|
| 1788217112 | 27.22° C | 88% | 1013 hPa | 2.29 mm | - | - | - |
| 1788216811 | 27.22° C | 88% | 1012.9 hPa | 2.54 mm | - | - | - |
| 1788216512 | 27.22° C | 87% | 1012.8 hPa | 5.33 mm | - | - | - |
| 1788216211 | 27.22° C | 87% | 1013 hPa | 5.33 mm | - | - | - |
| 1788215911 | 27.78° C | 87% | 1013 hPa | 5.33 mm | - | - | - |
| 1788215611 | 27.78° C | 87% | 1013.1 hPa | 5.33 mm | - | - | - |
| 1788215311 | 27.78° C | 86% | 1013.2 hPa | 5.08 mm | - | - | - |
| 1788215011 | 27.78° C | 86% | 1013.2 hPa | 4.83 mm | - | - | - |
| 1788214712 | 27.78° C | 86% | 1013.4 hPa | 4.06 mm | - | - | - |
| 1788214411 | 27.78° C | 85% | 1013.2 hPa | 4.06 mm | - | - | - |
| 1788213811 | 27.78° C | 85% | 1012.9 hPa | 3.05 mm | - | - | - |
| 1788213511 | 27.78° C | 84% | 1012.9 hPa | 3.05 mm | - | - | - |
| 1788213220 | 27.78° C | 85% | 1013 hPa | 2.79 mm | - | - | - |
| 1788212911 | 27.78° C | 85% | 1013.8 hPa | 0.25 mm | - | - | - |
| 1788212311 | 28.33° C | 86% | 1013.1 hPa | 0.25 mm | - | - | - |
| 1788212011 | 28.33° C | 86% | 1012.6 hPa | 0.25 mm | - | - | - |
| 1788211711 | 28.33° C | 87% | 1012.4 hPa | 0.25 mm | - | - | - |
| 1788211411 | 27.78° C | 87% | 1012.6 hPa | 0.51 mm | - | - | - |
| 1788211112 | 27.78° C | 87% | 1012.7 hPa | 0.51 mm | - | - | - |
| 1788210811 | 27.22° C | 88% | 1012.8 hPa | 1.52 mm | - | - | - |
| 1788210511 | 27.22° C | 87% | 1013 hPa | 1.78 mm | - | - | - |
| 1788210211 | 27.22° C | 87% | 1013.3 hPa | 1.78 mm | - | - | - |
| 1788209911 | 26.67° C | 86% | 1013.5 hPa | 1.78 mm | - | - | - |
| 1788209611 | 26.67° C | 86% | 1014.1 hPa | 1.52 mm | - | - | - |
| 1788209311 | 27.22° C | 86% | 1013.8 hPa | 1.78 mm | - | - | - |
* Rain latest hour (hover to see other rain measurements)
** Current wind speed in m/s (hover to see current wind gust speed)